This is the latest recevied weather packets stored in our database for station/object KE5YIM-13. If no packets are shown the sender has not sent any weather packets the latest 10 day(s).
| Time | Temp. | Humidity | Pressure | Rain* | Wind** | Luminosity | Snow |
|---|---|---|---|---|---|---|---|
| 1777462277 | 6.67° C | 96% | 1018.6 hPa | 0 mm | - | 54 W/m² | - |
| 1777461973 | 6.67° C | 97% | 1018.3 hPa | 0 mm | - | 49 W/m² | - |
| 1777461670 | 6.67° C | 97% | 1018.2 hPa | 0 mm | - | 44 W/m² | - |
| 1777461370 | 6.11° C | 97% | 1018.1 hPa | 0 mm | - | 41 W/m² | - |
| 1777461067 | 6.11° C | 97% | 1018 hPa | 0 mm | - | 38 W/m² | - |
| 1777460762 | 6.11° C | 97% | 1017.9 hPa | 0 mm | - | 35 W/m² | - |
| 1777460458 | 6.11° C | 97% | 1018.2 hPa | 0 mm | - | 35 W/m² | - |
| 1777460154 | 6.11° C | 97% | 1018.5 hPa | 0 mm | - | 42 W/m² | - |
| 1777459852 | 6.11° C | 97% | 1018.3 hPa | 0 mm | - | 39 W/m² | - |
| 1777459548 | 6.11° C | 97% | 1018.2 hPa | 0 mm | - | 32 W/m² | - |
| 1777459246 | 5.56° C | 97% | 1018.1 hPa | 0 mm | - | 30 W/m² | - |
| 1777458944 | 5.56° C | 97% | 1018.1 hPa | 0 mm | - | 27 W/m² | - |
| 1777458640 | 5.56° C | 97% | 1018.1 hPa | 0 mm | - | 22 W/m² | - |
| 1777458336 | 5.56° C | 97% | 1018.3 hPa | 0 mm | - | 19 W/m² | - |
| 1777458032 | 5° C | 97% | 1018.5 hPa | 0 mm | - | 16 W/m² | - |
| 1777457728 | 5° C | 97% | 1018.6 hPa | 0 mm | - | 13 W/m² | - |
| 1777457428 | 5° C | 97% | 1018.6 hPa | 0 mm | - | 11 W/m² | - |
| 1777457124 | 5° C | 96% | 1018.5 hPa | 0 mm | - | 8 W/m² | - |
| 1777456820 | 5° C | 96% | 1018.7 hPa | 0 mm | - | 6 W/m² | - |
| 1777456520 | 5° C | 96% | 1018.4 hPa | 0 mm | - | 4 W/m² | - |
| 1777456215 | 5° C | 96% | 1018.5 hPa | 0 mm | - | 2 W/m² | - |
| 1777455911 | 5° C | 96% | 1018.5 hPa | 0 mm | - | 1 W/m² | - |
| 1777455608 | 5° C | 96% | 1018.2 hPa | 0 mm | - | 0 W/m² | - |
| 1777455305 | 5° C | 96% | 1018.4 hPa | 0 mm | - | 0 W/m² | - |
| 1777455002 | 4.44° C | 96% | 1018 hPa | 0 mm | - | 0 W/m² | - |
* Rain latest hour (hover to see other rain measurements)
** Current wind speed in m/s (hover to see current wind gust speed)